Location: Chacón
(10.5789°N, 66.9317°W)
Time: 03:50:31
(UTC+00:00)

Cosmos 962 Rocket - Pass Details

Date: 14 October 2025
Orbit: 950 x 998 km, 82.9° (Epoch: 17 November)

Event Time Altitude Azimuth Distance (km) Brightness Sun altitude
Rises 08:05:46 0° 19° (NNE) 3,693 7.7 -32.8°
Reaches altitude 10° 08:08:52 10° 33° (NNE) 2,738 7.1 -32.0°
Maximum altitude 08:13:42 23° 84° (E) 1,941 6.7 -30.9°
Drops below altitude 10° 08:18:27 10° 134° (SE) 2,713 7.4 -29.7°
Sets 08:21:29 0° 148° (SSE) 3,652 8.0 -28.9°
